This demonstration page uses our WeatherBlox Daily Observations layout. Learn more.

Left ArrowRight Arrow

34.02893, -84.19858

Hourly Observations for May 9, 2015

Temp ( °F °C ) Dew Point ( °F °C ) Humidity (%) Winds ( mph kmh ) Pressure ( in mb ) Visibility ( mi km ) Precip ( " mm )
12:53 am 00:53 Mostly Cloudy 70 21.1 60 15.6 71 71 Calm 30.03 1017 8 13 0.00 0.00
1:53 am 01:53 Cloudy 70 21.1 61 16.1 73 73 Calm 30.04 1017 7 11 0.00 0.00
2:53 am 02:53 Mostly Cloudy 70 21.1 60 15.6 71 71 Calm 30.04 1017 8 13 0.00 0.00
3:53 am 03:53 Cloudy 69 20.6 62 16.7 78 78 Calm 30.06 1018 7 11 0.00 0.00
4:53 am 04:53 Cloudy 70 21.1 61 16.1 73 73 Calm 30.07 1018 8 13 0.00 0.00
5:53 am 05:53 Mostly Cloudy 69 20.6 60 15.6 73 73 VRB 3 6 30.08 1019 8 13 0.00 0.00
6:53 am 06:53 Mostly Cloudy 68 20 60 15.6 76 76 VRB 5 7 30.09 1019 7 11 0.00 0.00
7:53 am 07:53 Cloudy 68 20 61 16.1 78 78 VRB 3 6 30.11 1020 7 11 0.00 0.00
8:53 am 08:53 Mostly Sunny 71 21.7 62 16.7 73 73 VRB 3 6 30.09 1019 7 11 0.00 0.00
9:53 am 09:53 Sunny 72 22.2 62 16.7 71 71 VRB 6 9 30.09 1019 7 11 0.00 0.00
10:53 am 10:53 Sunny 76 24.4 62 16.7 62 62 VRB 5 7 30.09 1019 7 11 0.00 0.00
11:53 am 11:53 Sunny 80 26.7 61 16.1 52 52 Calm 30.10 1019 8 13 0.00 0.00
12:53 pm 12:53 Sunny 81 27.2 61 16.1 51 51 Calm 30.10 1019 8 13 0.00 0.00
1:53 pm 13:53 Sunny 82 27.8 60 15.6 47 47 VRB 3 6 30.09 1019 7 11 0.00 0.00
2:53 pm 14:53 Mostly Cloudy 82 27.8 60 15.6 47 47 N 3 6 30.06 1018 7 11 0.00 0.00
3:53 pm 15:53 Mostly Cloudy 84 28.9 60 15.6 44 44 VRB 3 6 30.04 1017 7 11 0.00 0.00
4:53 pm 16:53 Partly Cloudy 86 30 60 15.6 42 42 VRB 3 6 30.01 1016 7 11 0.00 0.00
5:53 pm 17:53 Mostly Sunny 86 30 59 15 40 40 Calm 30.01 1016 7 11 0.00 0.00
6:53 pm 18:53 Mostly Sunny 84 28.9 60 15.6 44 44 VRB 5 7 30.01 1016 7 11 0.00 0.00
7:53 pm 19:53 Sunny 81 27.2 60 15.6 49 49 E 5 7 30.02 1017 7 11 0.00 0.00
8:53 pm 20:53 Clear 78 25.6 60 15.6 54 54 E 5 7 30.05 1018 8 13 0.00 0.00
9:53 pm 21:53 Clear 75 23.9 61 16.1 62 62 VRB 3 6 30.06 1018 9 14 0.00 0.00
10:53 pm 22:53 Clear 74 23.3 60 15.6 62 62 ESE 3 6 30.07 1018 9 14 0.00 0.00
11:53 pm 23:53 Clear 73 22.8 60 15.6 64 64 Calm 30.06 1018 9 14 0.00 0.00

Powered by AerisWeather